User: anonymous   Login
Location: New Canada
(47.1017°N, 68.5042°W)
Time: 09:08:37
(UTC+00:00)
Language:

deb Kosmos - Orbit

View from above orbital plane
View from above orbital plane
View from above satellite
View from above satellite

Ground track
Ground track

The orbit data is extracted from the following two-line orbital elements,

1 18608U 85077K   23335.38501897  .00005156  00000-0  11108-2 0  9997
2 18608  74.0488  55.1596 0011671 300.8745  59.1271 14.58659008943490
Epoch (UTC): 01 December 2023 09:14:25
Eccentricity: 0.0011671
inclination: 74.0488°
perigee height: 689 km
apogee height: 706 km
right ascension of ascending node: 55.1596°
argument of perigee: 300.8745°
revolutions per day: 14.58659008
mean anomaly at epoch: 59.1271°
orbit number at epoch: 94349

The dashed part of the orbit path shows where the satellite is in the earth's shadow,  

DLR